GFSNIL_prec_precacc24_096.txt.gz
Total_Precipitation_Accumulation
0.01 0.01 0.01 0.00 0.00 0.00 0.00 0.01 0.03 0.09 0.10 0.08 0.12 0.19 0.19 0.16 0.15 0.17 0.16 0.20 0.24 0.31
0.01 0.01 0.00 0.00 0.00 0.00 0.00 0.01 0.00 0.02 0.09 0.12 0.15 0.18 0.23 0.26 0.28 0.31 0.29 0.23 0.21 0.19
0.01 0.01 0.01 0.01 0.00 0.02 0.06 0.06 0.05 0.06 0.13 0.14 0.16 0.17 0.21 0.18 0.16 0.18 0.20 0.23 0.28 0.35
0.01 0.01 0.01 0.04 0.04 0.06 0.10 0.15 0.24 0.31 0.34 0.30 0.28 0.36 0.36 0.23 0.21 0.23 0.24 0.33 0.38 0.36
0.05 0.03 0.05 0.08 0.10 0.11 0.24 0.33 0.37 0.30 0.21 0.16 0.16 0.16 0.14 0.15 0.19 0.22 0.26 0.31 0.44 0.33
0.06 0.04 0.07 0.29 0.49 0.46 0.34 0.21 0.10 0.04 0.04 0.04 0.05 0.06 0.08 0.09 0.12 0.15 0.16 0.18 0.21 0.19
0.16 0.06 0.09 0.09 0.13 0.12 0.14 0.09 0.08 0.08 0.08 0.08 0.08 0.08 0.10 0.11 0.12 0.15 0.15 0.16 0.16 0.13
0.11 0.09 0.09 0.09 0.08 0.12 0.13 0.14 0.14 0.16 0.13 0.12 0.12 0.12 0.13 0.12 0.12 0.12 0.13 0.13 0.13 0.12
0.05 0.05 0.06 0.06 0.07 0.07 0.10 0.11 0.11 0.11 0.11 0.10 0.11 0.22 0.18 0.13 0.11 0.16 0.16 0.15 0.14 0.17
0.03 0.02 0.02 0.02 0.02 0.03 0.09 0.12 0.13 0.11 0.10 0.10 0.14 0.26 0.16 0.16 0.08 0.08 0.13 0.15 0.16 0.17
0.07 0.05 0.02 0.02 0.03 0.03 0.03 0.05 0.06 0.07 0.07 0.08 0.15 0.22 0.12 0.12 0.08 0.10 0.15 0.18 0.19 0.23
0.12 0.07 0.06 0.04 0.04 0.05 0.06 0.07 0.06 0.06 0.05 0.07 0.10 0.18 0.12 0.11 0.08 0.16 0.19 0.20 0.25 0.31
0.15 0.10 0.09 0.10 0.05 0.06 0.07 0.08 0.08 0.10 0.09 0.16 0.10 0.23 0.14 0.10 0.06 0.13 0.15 0.15 0.22 0.38
0.18 0.15 0.12 0.14 0.09 0.09 0.10 0.12 0.16 0.17 0.15 0.13 0.18 0.20 0.21 0.14 0.07 0.09 0.12 0.14 0.16 0.27

GFSNIL_prec_precacc24_099.txt.gz
Total_Precipitation_Accumulation
0.01 0.01 0.01 0.00 0.00 0.00 0.01 0.04 0.08 0.21 0.30 0.28 0.30 0.23 0.15 0.09 0.10 0.15 0.15 0.18 0.21 0.27
0.01 0.01 0.00 0.00 0.00 0.00 0.00 0.04 0.07 0.07 0.17 0.22 0.24 0.21 0.22 0.20 0.22 0.28 0.27 0.21 0.19 0.18
0.01 0.01 0.01 0.00 0.00 0.00 0.00 0.02 0.04 0.03 0.07 0.10 0.15 0.14 0.15 0.11 0.13 0.16 0.17 0.21 0.26 0.35
0.01 0.01 0.01 0.01 0.00 0.00 0.00 0.01 0.02 0.05 0.10 0.16 0.21 0.26 0.25 0.16 0.18 0.22 0.22 0.31 0.38 0.37
0.02 0.01 0.00 0.00 0.00 0.00 0.00 0.00 0.02 0.05 0.05 0.09 0.12 0.12 0.11 0.13 0.16 0.19 0.25 0.30 0.43 0.33
0.04 0.01 0.00 0.00 0.00 0.01 0.00 0.02 0.04 0.03 0.03 0.03 0.03 0.03 0.03 0.04 0.08 0.12 0.14 0.17 0.20 0.19
0.13 0.05 0.04 0.01 0.01 0.02 0.06 0.06 0.06 0.04 0.04 0.04 0.04 0.04 0.04 0.05 0.09 0.13 0.14 0.15 0.16 0.13
0.07 0.07 0.08 0.07 0.06 0.07 0.06 0.09 0.12 0.12 0.09 0.07 0.06 0.06 0.09 0.09 0.10 0.10 0.11 0.12 0.12 0.11
0.02 0.04 0.06 0.05 0.05 0.05 0.07 0.07 0.07 0.07 0.07 0.05 0.07 0.16 0.13 0.10 0.10 0.15 0.15 0.15 0.14 0.17
0.04 0.02 0.02 0.01 0.01 0.03 0.06 0.09 0.11 0.08 0.06 0.07 0.10 0.20 0.14 0.15 0.07 0.08 0.12 0.14 0.16 0.17
0.12 0.09 0.05 0.02 0.01 0.02 0.02 0.04 0.04 0.05 0.05 0.07 0.14 0.20 0.11 0.12 0.08 0.10 0.15 0.18 0.19 0.23
0.17 0.14 0.12 0.10 0.10 0.06 0.05 0.06 0.04 0.05 0.05 0.06 0.10 0.17 0.12 0.11 0.08 0.16 0.19 0.20 0.25 0.32
0.16 0.13 0.12 0.16 0.11 0.12 0.10 0.08 0.09 0.11 0.10 0.16 0.10 0.22 0.15 0.11 0.07 0.14 0.16 0.16 0.23 0.45
0.19 0.15 0.12 0.16 0.13 0.13 0.13 0.15 0.19 0.21 0.17 0.15 0.21 0.23 0.24 0.16 0.08 0.11 0.14 0.19 0.22 0.34

GFSNIL_prec_precacc24_102.txt.gz
Total_Precipitation_Accumulation
0.01 0.01 0.01 0.00 0.00 0.00 0.01 0.04 0.09 0.24 0.32 0.40 0.55 0.46 0.27 0.10 0.04 0.05 0.03 0.07 0.15 0.25
0.01 0.01 0.00 0.00 0.00 0.00 0.00 0.04 0.07 0.09 0.24 0.36 0.49 0.44 0.35 0.26 0.14 0.08 0.06 0.09 0.15 0.16
0.01 0.01 0.01 0.00 0.00 0.00 0.00 0.02 0.05 0.03 0.08 0.15 0.24 0.26 0.24 0.23 0.23 0.19 0.13 0.10 0.12 0.28
0.01 0.01 0.01 0.01 0.00 0.00 0.00 0.00 0.01 0.01 0.02 0.07 0.11 0.16 0.18 0.13 0.17 0.20 0.17 0.25 0.31 0.28
0.00 0.00 0.00 0.00 0.00 0.00 0.00 0.00 0.00 0.00 0.01 0.03 0.08 0.12 0.12 0.12 0.15 0.16 0.20 0.24 0.37 0.28
0.01 0.00 0.00 0.00 0.00 0.00 0.00 0.00 0.00 0.00 0.01 0.03 0.05 0.05 0.04 0.04 0.06 0.08 0.07 0.07 0.11 0.11
0.02 0.02 0.00 0.00 0.01 0.01 0.00 0.01 0.03 0.03 0.03 0.04 0.03 0.03 0.03 0.02 0.02 0.03 0.02 0.03 0.08 0.10
0.01 0.01 0.01 0.02 0.03 0.03 0.02 0.01 0.01 0.05 0.05 0.06 0.05 0.03 0.04 0.02 0.02 0.03 0.04 0.05 0.08 0.08
0.00 0.01 0.02 0.02 0.04 0.04 0.03 0.02 0.01 0.01 0.01 0.03 0.03 0.08 0.07 0.05 0.06 0.09 0.09 0.09 0.09 0.13
0.06 0.02 0.02 0.01 0.01 0.02 0.05 0.05 0.05 0.02 0.02 0.03 0.05 0.12 0.08 0.10 0.05 0.06 0.09 0.12 0.14 0.16
0.13 0.08 0.05 0.02 0.02 0.02 0.02 0.02 0.03 0.03 0.03 0.04 0.09 0.14 0.08 0.08 0.07 0.09 0.13 0.16 0.18 0.22
0.18 0.14 0.12 0.10 0.10 0.06 0.03 0.03 0.03 0.03 0.03 0.03 0.06 0.14 0.10 0.10 0.08 0.15 0.19 0.20 0.25 0.32
0.17 0.13 0.12 0.15 0.11 0.11 0.07 0.06 0.06 0.08 0.07 0.14 0.08 0.20 0.14 0.11 0.07 0.14 0.17 0.16 0.24 0.46
0.19 0.16 0.14 0.17 0.14 0.12 0.12 0.14 0.18 0.20 0.17 0.15 0.21 0.23 0.25 0.18 0.09 0.11 0.17 0.22 0.24 0.37

GFSNIL_prec_precacc24_108.txt.gz
Total_Precipitation_Accumulation
0.01 0.01 0.00 0.00 0.00 0.00 0.01 0.04 0.09 0.25 0.33 0.42 0.65 0.56 0.33 0.15 0.09 0.10 0.07 0.07 0.04 0.04
0.01 0.01 0.00 0.00 0.00 0.00 0.00 0.05 0.08 0.11 0.24 0.37 0.54 0.59 0.58 0.41 0.20 0.12 0.11 0.09 0.09 0.09
0.01 0.01 0.01 0.00 0.00 0.00 0.00 0.02 0.05 0.04 0.09 0.17 0.30 0.31 0.36 0.40 0.35 0.29 0.22 0.18 0.18 0.24
0.01 0.01 0.01 0.01 0.00 0.00 0.00 0.01 0.02 0.02 0.02 0.07 0.14 0.23 0.25 0.17 0.19 0.20 0.19 0.31 0.34 0.21
0.00 0.00 0.00 0.00 0.00 0.00 0.00 0.00 0.00 0.01 0.00 0.02 0.07 0.12 0.15 0.15 0.19 0.14 0.10 0.12 0.22 0.12
0.01 0.00 0.00 0.00 0.00 0.00 0.00 0.00 0.00 0.00 0.00 0.01 0.04 0.04 0.05 0.06 0.08 0.12 0.09 0.10 0.10 0.06
0.04 0.01 0.00 0.00 0.00 0.01 0.00 0.00 0.00 0.00 0.00 0.00 0.01 0.01 0.01 0.02 0.02 0.04 0.04 0.04 0.06 0.06
0.02 0.00 0.00 0.00 0.00 0.00 0.01 0.00 0.00 0.01 0.00 0.01 0.00 0.00 0.01 0.01 0.01 0.01 0.01 0.01 0.03 0.04
0.01 0.00 0.00 0.00 0.00 0.00 0.01 0.00 0.00 0.00 0.00 0.00 0.00 0.01 0.01 0.01 0.04 0.06 0.04 0.04 0.04 0.07
0.08 0.03 0.01 0.00 0.00 0.00 0.00 0.00 0.00 0.00 0.00 0.01 0.02 0.01 0.01 0.01 0.03 0.04 0.06 0.08 0.11 0.14
0.14 0.09 0.05 0.02 0.01 0.01 0.01 0.00 0.01 0.01 0.01 0.01 0.02 0.04 0.03 0.04 0.05 0.08 0.10 0.12 0.14 0.17
0.27 0.16 0.12 0.10 0.09 0.05 0.02 0.02 0.01 0.01 0.00 0.01 0.03 0.08 0.06 0.06 0.07 0.14 0.17 0.17 0.23 0.30
0.28 0.20 0.14 0.16 0.13 0.11 0.07 0.05 0.05 0.05 0.03 0.09 0.06 0.15 0.11 0.09 0.06 0.14 0.16 0.16 0.23 0.46
0.21 0.20 0.15 0.19 0.16 0.15 0.16 0.16 0.20 0.22 0.18 0.16 0.22 0.21 0.26 0.18 0.12 0.12 0.18 0.28 0.32 0.47

GFSNIL_prec_precacc24_111.txt.gz
Total_Precipitation_Accumulation
0.00 0.01 0.00 0.00 0.00 0.00 0.01 0.05 0.09 0.21 0.31 0.42 0.65 0.57 0.34 0.16 0.10 0.13 0.13 0.14 0.09 0.10
0.01 0.00 0.00 0.00 0.00 0.00 0.00 0.05 0.08 0.10 0.19 0.35 0.54 0.59 0.58 0.42 0.21 0.14 0.13 0.11 0.13 0.14
0.00 0.00 0.00 0.00 0.00 0.00 0.00 0.03 0.06 0.05 0.08 0.15 0.30 0.33 0.34 0.40 0.35 0.32 0.27 0.22 0.23 0.27
0.01 0.00 0.00 0.00 0.00 0.00 0.00 0.00 0.02 0.03 0.02 0.07 0.14 0.24 0.27 0.19 0.21 0.28 0.35 0.42 0.43 0.30
0.01 0.01 0.00 0.00 0.00 0.00 0.00 0.00 0.00 0.01 0.01 0.02 0.07 0.12 0.16 0.18 0.23 0.18 0.20 0.23 0.29 0.20
0.01 0.01 0.01 0.00 0.00 0.00 0.00 0.00 0.00 0.01 0.01 0.01 0.05 0.06 0.07 0.09 0.12 0.22 0.20 0.22 0.18 0.12
0.08 0.05 0.02 0.00 0.00 0.01 0.00 0.00 0.00 0.00 0.01 0.00 0.01 0.02 0.02 0.03 0.04 0.07 0.11 0.13 0.13 0.12
0.09 0.05 0.02 0.01 0.00 0.00 0.01 0.00 0.00 0.00 0.00 0.01 0.01 0.00 0.01 0.01 0.00 0.01 0.02 0.03 0.05 0.04
0.13 0.07 0.02 0.00 0.00 0.00 0.01 0.00 0.00 0.00 0.00 0.00 0.00 0.01 0.01 0.01 0.03 0.05 0.04 0.03 0.02 0.03
0.21 0.08 0.02 0.00 0.00 0.00 0.00 0.00 0.00 0.00 0.00 0.00 0.01 0.00 0.00 0.00 0.01 0.04 0.06 0.06 0.09 0.12
0.21 0.10 0.05 0.02 0.02 0.01 0.01 0.00 0.01 0.00 0.00 0.01 0.00 0.01 0.00 0.01 0.05 0.08 0.10 0.10 0.11 0.14
0.31 0.17 0.12 0.10 0.09 0.05 0.02 0.02 0.01 0.01 0.01 0.01 0.02 0.05 0.04 0.05 0.07 0.14 0.16 0.16 0.19 0.25
0.36 0.25 0.15 0.16 0.13 0.11 0.08 0.05 0.05 0.05 0.03 0.08 0.05 0.12 0.10 0.09 0.06 0.14 0.17 0.17 0.20 0.40
0.42 0.31 0.20 0.21 0.19 0.17 0.16 0.17 0.20 0.23 0.18 0.16 0.22 0.20 0.25 0.17 0.11 0.12 0.18 0.28 0.34 0.51

GFSNIL_prec_precacc24_117.txt.gz
Total_Precipitation_Accumulation
0.01 0.01 0.00 0.01 0.01 0.00 0.01 0.05 0.10 0.20 0.28 0.40 0.62 0.50 0.29 0.14 0.10 0.11 0.13 0.16 0.17 0.27
0.00 0.00 0.01 0.01 0.01 0.01 0.01 0.05 0.09 0.10 0.17 0.30 0.51 0.56 0.54 0.39 0.20 0.15 0.14 0.13 0.15 0.18
0.00 0.00 0.00 0.01 0.01 0.01 0.01 0.03 0.06 0.06 0.06 0.13 0.25 0.28 0.31 0.37 0.33 0.30 0.27 0.22 0.21 0.22
0.00 0.00 0.00 0.01 0.01 0.01 0.01 0.01 0.02 0.03 0.02 0.06 0.12 0.19 0.21 0.17 0.19 0.27 0.33 0.32 0.33 0.31
0.00 0.01 0.02 0.01 0.01 0.02 0.01 0.01 0.00 0.01 0.01 0.02 0.06 0.09 0.13 0.14 0.19 0.16 0.19 0.22 0.24 0.29
0.04 0.04 0.03 0.03 0.02 0.02 0.01 0.01 0.00 0.01 0.01 0.02 0.06 0.06 0.08 0.09 0.10 0.20 0.23 0.26 0.19 0.18
0.11 0.09 0.07 0.05 0.04 0.03 0.02 0.01 0.00 0.01 0.01 0.00 0.01 0.03 0.03 0.04 0.05 0.08 0.16 0.24 0.20 0.21
0.12 0.09 0.07 0.06 0.06 0.05 0.02 0.01 0.00 0.01 0.00 0.01 0.01 0.01 0.02 0.01 0.01 0.01 0.03 0.07 0.09 0.16
0.18 0.17 0.13 0.09 0.08 0.07 0.04 0.01 0.01 0.01 0.01 0.01 0.01 0.02 0.02 0.01 0.01 0.01 0.01 0.02 0.03 0.10
0.30 0.25 0.21 0.13 0.10 0.10 0.06 0.02 0.01 0.01 0.01 0.00 0.00 0.01 0.01 0.01 0.01 0.01 0.02 0.02 0.03 0.04
0.39 0.31 0.30 0.20 0.15 0.12 0.08 0.05 0.03 0.01 0.01 0.01 0.01 0.01 0.01 0.01 0.01 0.02 0.02 0.02 0.02 0.02
0.47 0.33 0.34 0.31 0.27 0.17 0.10 0.07 0.05 0.02 0.01 0.02 0.01 0.03 0.02 0.01 0.01 0.04 0.04 0.04 0.06 0.07
0.49 0.37 0.33 0.28 0.28 0.29 0.17 0.11 0.08 0.05 0.04 0.06 0.02 0.06 0.05 0.05 0.03 0.06 0.08 0.09 0.11 0.27
0.73 0.49 0.39 0.34 0.28 0.23 0.20 0.19 0.21 0.22 0.16 0.12 0.16 0.13 0.17 0.13 0.08 0.07 0.10 0.20 0.26 0.41

GFSNIL_prec_precacc24_123.txt.gz
Total_Precipitation_Accumulation
0.01 0.01 0.01 0.01 0.01 0.01 0.01 0.03 0.05 0.09 0.09 0.18 0.39 0.37 0.25 0.14 0.11 0.11 0.14 0.17 0.18 0.27
0.00 0.00 0.01 0.01 0.02 0.02 0.01 0.01 0.02 0.06 0.10 0.18 0.34 0.43 0.44 0.32 0.20 0.16 0.14 0.14 0.15 0.19
0.00 0.00 0.00 0.01 0.01 0.02 0.01 0.02 0.03 0.05 0.05 0.10 0.21 0.25 0.29 0.38 0.33 0.31 0.28 0.23 0.21 0.21
0.00 0.00 0.00 0.01 0.01 0.02 0.02 0.01 0.04 0.05 0.03 0.04 0.10 0.19 0.23 0.19 0.20 0.26 0.33 0.31 0.30 0.29
0.00 0.01 0.02 0.02 0.01 0.02 0.03 0.02 0.02 0.04 0.03 0.04 0.05 0.09 0.15 0.17 0.21 0.17 0.20 0.22 0.22 0.29
0.04 0.04 0.04 0.03 0.03 0.03 0.04 0.03 0.02 0.04 0.04 0.03 0.07 0.07 0.09 0.10 0.12 0.21 0.24 0.25 0.19 0.19
0.11 0.09 0.09 0.08 0.08 0.07 0.05 0.03 0.02 0.02 0.03 0.03 0.03 0.04 0.05 0.06 0.06 0.09 0.16 0.24 0.21 0.21
0.12 0.08 0.07 0.07 0.08 0.07 0.06 0.03 0.02 0.04 0.04 0.02 0.03 0.04 0.04 0.03 0.03 0.04 0.05 0.08 0.11 0.19
0.18 0.17 0.14 0.10 0.09 0.10 0.10 0.07 0.07 0.03 0.03 0.06 0.04 0.05 0.05 0.03 0.01 0.02 0.03 0.04 0.05 0.13
0.26 0.25 0.21 0.14 0.11 0.13 0.14 0.12 0.10 0.09 0.04 0.03 0.04 0.06 0.04 0.02 0.01 0.02 0.03 0.02 0.02 0.06
0.29 0.24 0.29 0.21 0.17 0.15 0.17 0.18 0.14 0.11 0.08 0.04 0.03 0.08 0.05 0.03 0.01 0.03 0.02 0.02 0.02 0.02
0.36 0.27 0.31 0.31 0.27 0.24 0.23 0.26 0.25 0.16 0.10 0.07 0.04 0.05 0.04 0.02 0.00 0.03 0.03 0.02 0.04 0.06
0.43 0.37 0.35 0.28 0.42 0.46 0.35 0.29 0.25 0.22 0.18 0.23 0.10 0.07 0.05 0.04 0.00 0.01 0.03 0.05 0.05 0.12
0.65 0.51 0.47 0.44 0.39 0.53 0.52 0.38 0.36 0.38 0.32 0.28 0.28 0.20 0.15 0.09 0.05 0.02 0.05 0.12 0.16 0.23

GFSNIL_prec_precacc24_126.txt.gz
Total_Precipitation_Accumulation
0.03 0.02 0.02 0.02 0.02 0.02 0.03 0.04 0.06 0.07 0.08 0.08 0.18 0.19 0.15 0.10 0.10 0.12 0.15 0.17 0.19 0.28
0.00 0.00 0.01 0.01 0.02 0.02 0.01 0.01 0.02 0.04 0.04 0.05 0.10 0.22 0.29 0.21 0.11 0.11 0.12 0.13 0.16 0.20
0.00 0.00 0.00 0.01 0.01 0.02 0.01 0.01 0.02 0.04 0.03 0.05 0.09 0.11 0.17 0.22 0.17 0.17 0.21 0.21 0.21 0.22
0.00 0.00 0.00 0.01 0.01 0.02 0.02 0.01 0.03 0.04 0.03 0.03 0.07 0.15 0.19 0.16 0.14 0.20 0.31 0.31 0.31 0.30
0.00 0.01 0.02 0.02 0.01 0.02 0.03 0.02 0.02 0.03 0.03 0.03 0.04 0.06 0.12 0.16 0.20 0.17 0.21 0.23 0.23 0.29
0.04 0.04 0.04 0.03 0.03 0.03 0.04 0.03 0.02 0.04 0.04 0.03 0.05 0.05 0.08 0.10 0.11 0.21 0.25 0.27 0.20 0.19
0.11 0.09 0.09 0.08 0.08 0.07 0.05 0.03 0.03 0.03 0.05 0.04 0.04 0.04 0.05 0.05 0.06 0.10 0.18 0.26 0.23 0.22
0.12 0.08 0.07 0.07 0.08 0.07 0.06 0.04 0.02 0.05 0.05 0.04 0.04 0.05 0.05 0.04 0.05 0.05 0.06 0.09 0.13 0.21
0.17 0.17 0.14 0.10 0.09 0.10 0.10 0.07 0.07 0.04 0.05 0.07 0.05 0.08 0.07 0.05 0.03 0.04 0.05 0.04 0.06 0.14
0.24 0.23 0.21 0.14 0.11 0.13 0.14 0.12 0.11 0.10 0.06 0.04 0.05 0.07 0.05 0.05 0.04 0.05 0.06 0.04 0.03 0.06
0.26 0.23 0.28 0.20 0.16 0.15 0.17 0.18 0.14 0.12 0.09 0.06 0.04 0.10 0.09 0.09 0.05 0.05 0.04 0.03 0.02 0.02
0.34 0.26 0.31 0.30 0.26 0.23 0.22 0.26 0.26 0.16 0.11 0.10 0.07 0.08 0.09 0.12 0.04 0.07 0.04 0.03 0.04 0.06
0.42 0.35 0.34 0.28 0.41 0.44 0.34 0.29 0.25 0.23 0.19 0.24 0.12 0.14 0.12 0.11 0.06 0.04 0.04 0.06 0.06 0.13
0.63 0.49 0.44 0.41 0.35 0.51 0.51 0.38 0.37 0.41 0.37 0.33 0.37 0.32 0.30 0.19 0.06 0.02 0.04 0.10 0.15 0.21

GFSNIL_prec_precacc24_132.txt.gz
Total_Precipitation_Accumulation
0.16 0.15 0.08 0.09 0.11 0.10 0.09 0.06 0.08 0.08 0.12 0.11 0.14 0.15 0.16 0.16 0.13 0.14 0.17 0.17 0.22 0.30
0.06 0.04 0.05 0.05 0.04 0.04 0.02 0.01 0.02 0.03 0.04 0.05 0.06 0.09 0.09 0.09 0.09 0.12 0.10 0.08 0.14 0.21
0.01 0.01 0.01 0.02 0.02 0.02 0.01 0.01 0.01 0.02 0.02 0.03 0.05 0.08 0.08 0.07 0.06 0.09 0.12 0.12 0.11 0.14
0.00 0.00 0.00 0.01 0.01 0.02 0.02 0.01 0.02 0.03 0.02 0.02 0.04 0.06 0.09 0.08 0.08 0.15 0.24 0.21 0.20 0.22
0.00 0.01 0.02 0.02 0.01 0.02 0.03 0.01 0.02 0.03 0.03 0.02 0.03 0.03 0.06 0.10 0.11 0.12 0.21 0.23 0.23 0.28
0.03 0.04 0.04 0.03 0.03 0.03 0.04 0.02 0.02 0.04 0.04 0.03 0.04 0.05 0.05 0.06 0.09 0.16 0.22 0.24 0.19 0.20
0.07 0.09 0.09 0.08 0.08 0.07 0.05 0.03 0.03 0.03 0.04 0.04 0.04 0.05 0.05 0.06 0.08 0.10 0.17 0.26 0.23 0.22
0.10 0.09 0.07 0.07 0.08 0.07 0.06 0.04 0.02 0.04 0.05 0.05 0.05 0.06 0.05 0.06 0.07 0.08 0.09 0.12 0.15 0.23
0.16 0.17 0.14 0.10 0.09 0.10 0.10 0.07 0.07 0.04 0.05 0.08 0.07 0.10 0.08 0.06 0.05 0.07 0.08 0.07 0.08 0.16
0.22 0.23 0.21 0.14 0.11 0.13 0.14 0.12 0.11 0.10 0.06 0.05 0.06 0.10 0.06 0.07 0.06 0.08 0.08 0.08 0.07 0.09
0.25 0.23 0.28 0.20 0.16 0.15 0.17 0.18 0.14 0.12 0.09 0.06 0.06 0.13 0.11 0.11 0.07 0.07 0.08 0.08 0.07 0.07
0.26 0.22 0.30 0.29 0.25 0.23 0.22 0.26 0.26 0.16 0.11 0.11 0.08 0.10 0.10 0.15 0.09 0.12 0.10 0.06 0.08 0.11
0.31 0.28 0.30 0.26 0.39 0.43 0.32 0.27 0.24 0.22 0.19 0.25 0.13 0.17 0.14 0.15 0.11 0.11 0.14 0.19 0.14 0.16
0.61 0.46 0.42 0.38 0.31 0.46 0.46 0.32 0.32 0.34 0.33 0.29 0.36 0.31 0.30 0.24 0.08 0.07 0.09 0.12 0.15 0.19

GFSNIL_prec_precacc24_138.txt.gz
Total_Precipitation_Accumulation
0.44 0.66 0.49 0.38 0.33 0.19 0.17 0.09 0.10 0.08 0.13 0.14 0.16 0.19 0.19 0.17 0.12 0.11 0.10 0.07 0.12 0.15
0.73 0.78 0.78 0.68 0.77 0.58 0.36 0.14 0.04 0.06 0.08 0.08 0.09 0.16 0.13 0.10 0.08 0.08 0.07 0.04 0.07 0.14
0.72 0.79 0.79 0.81 0.62 0.55 0.30 0.22 0.13 0.08 0.12 0.26 0.16 0.11 0.08 0.07 0.05 0.06 0.05 0.05 0.04 0.06
0.63 0.63 0.77 0.81 0.65 0.63 0.36 0.20 0.11 0.09 0.11 0.24 0.44 0.29 0.13 0.08 0.06 0.07 0.07 0.07 0.06 0.05
0.38 0.60 0.63 0.62 0.44 0.28 0.36 0.30 0.21 0.22 0.15 0.11 0.08 0.09 0.08 0.08 0.05 0.06 0.08 0.07 0.08 0.07
0.36 0.62 0.65 0.57 0.47 0.47 0.34 0.13 0.10 0.19 0.25 0.21 0.10 0.06 0.03 0.03 0.04 0.05 0.05 0.05 0.07 0.07
0.27 0.37 0.47 0.33 0.40 0.54 0.66 0.33 0.07 0.05 0.07 0.07 0.05 0.04 0.04 0.04 0.05 0.05 0.05 0.06 0.06 0.08
0.16 0.19 0.21 0.19 0.17 0.27 0.26 0.31 0.20 0.09 0.07 0.04 0.05 0.06 0.05 0.06 0.07 0.07 0.07 0.07 0.08 0.14
0.15 0.07 0.08 0.10 0.13 0.18 0.19 0.13 0.11 0.05 0.06 0.08 0.07 0.10 0.08 0.06 0.05 0.07 0.08 0.07 0.08 0.12
0.04 0.04 0.06 0.06 0.08 0.14 0.16 0.13 0.11 0.10 0.06 0.05 0.06 0.11 0.06 0.08 0.06 0.08 0.08 0.09 0.08 0.10
0.09 0.06 0.13 0.11 0.10 0.13 0.16 0.17 0.14 0.12 0.09 0.06 0.06 0.13 0.11 0.11 0.07 0.07 0.08 0.09 0.08 0.09
0.08 0.10 0.20 0.24 0.23 0.21 0.21 0.25 0.25 0.16 0.11 0.10 0.08 0.10 0.10 0.15 0.09 0.12 0.09 0.06 0.08 0.12
0.13 0.15 0.24 0.23 0.37 0.42 0.31 0.26 0.24 0.22 0.18 0.24 0.13 0.17 0.14 0.14 0.11 0.12 0.13 0.16 0.14 0.18
0.22 0.27 0.30 0.32 0.28 0.43 0.43 0.31 0.31 0.33 0.32 0.29 0.35 0.30 0.30 0.24 0.09 0.08 0.11 0.11 0.10 0.14

GFSNIL_prec_precacc24_141.txt.gz
Total_Precipitation_Accumulation
0.43 0.66 0.49 0.41 0.47 0.32 0.32 0.37 0.52 0.49 0.20 0.15 0.16 0.19 0.20 0.20 0.14 0.11 0.10 0.07 0.11 0.13
0.73 0.78 0.77 0.69 1.06 1.02 0.63 0.47 0.53 0.84 0.41 0.11 0.09 0.17 0.15 0.14 0.10 0.09 0.07 0.04 0.06 0.11
0.73 0.80 0.79 0.81 0.80 1.07 1.07 0.78 0.68 0.74 0.45 0.32 0.18 0.17 0.12 0.10 0.07 0.06 0.04 0.05 0.03 0.05
0.73 0.67 0.78 0.84 0.77 1.05 1.29 1.09 0.85 0.68 0.56 0.39 0.63 0.65 0.35 0.21 0.15 0.11 0.08 0.07 0.06 0.05
0.56 0.69 0.65 0.64 0.60 0.41 1.26 1.53 1.44 1.32 0.80 0.28 0.30 0.48 0.52 0.34 0.32 0.24 0.16 0.10 0.09 0.08
0.46 0.67 0.73 0.70 0.68 0.76 0.66 1.15 1.29 1.48 1.20 0.42 0.23 0.20 0.17 0.23 0.18 0.18 0.16 0.08 0.08 0.08
0.50 0.42 0.56 0.71 0.80 1.01 1.10 1.04 0.95 1.04 0.70 0.31 0.14 0.12 0.13 0.12 0.12 0.10 0.09 0.06 0.06 0.06
0.43 0.41 0.28 0.30 0.41 0.73 0.75 0.83 1.04 1.07 0.82 0.34 0.10 0.08 0.08 0.08 0.10 0.10 0.09 0.07 0.07 0.08
0.22 0.18 0.20 0.23 0.22 0.31 0.52 0.60 0.55 0.61 0.77 0.73 0.30 0.16 0.10 0.08 0.06 0.07 0.07 0.07 0.07 0.08
0.05 0.06 0.05 0.08 0.11 0.15 0.27 0.36 0.40 0.36 0.28 0.28 0.27 0.25 0.14 0.09 0.07 0.08 0.08 0.09 0.08 0.09
0.02 0.02 0.03 0.03 0.02 0.04 0.10 0.14 0.16 0.18 0.17 0.15 0.11 0.16 0.13 0.12 0.07 0.07 0.08 0.09 0.08 0.09
0.02 0.04 0.07 0.09 0.08 0.10 0.14 0.20 0.22 0.15 0.10 0.10 0.08 0.10 0.10 0.15 0.09 0.11 0.09 0.06 0.08 0.12
0.03 0.07 0.10 0.12 0.23 0.25 0.23 0.22 0.21 0.21 0.17 0.23 0.13 0.17 0.14 0.14 0.11 0.11 0.13 0.16 0.14 0.17
0.04 0.12 0.17 0.21 0.18 0.35 0.38 0.26 0.27 0.30 0.30 0.27 0.34 0.30 0.29 0.22 0.09 0.09 0.11 0.10 0.10 0.14

GFSNIL_prec_precacc24_144.txt.gz
Total_Precipitation_Accumulation
0.44 0.66 0.49 0.41 0.46 0.32 0.32 0.36 0.52 0.56 0.65 0.64 0.81 0.94 0.49 0.31 0.19 0.16 0.11 0.06 0.10 0.12
0.73 0.78 0.77 0.68 1.05 1.01 0.63 0.47 0.52 0.89 1.11 1.03 1.16 1.06 1.16 0.54 0.20 0.15 0.08 0.04 0.06 0.10
0.73 0.80 0.79 0.82 0.79 1.06 1.07 0.78 0.67 0.82 0.98 1.37 1.19 1.36 1.14 0.69 0.27 0.14 0.13 0.08 0.04 0.08
0.75 0.70 0.82 0.87 0.79 1.05 1.29 1.08 0.83 0.67 0.91 0.93 1.02 1.13 0.88 0.72 0.32 0.23 0.20 0.16 0.13 0.09
0.67 0.85 0.82 0.79 0.71 0.45 1.27 1.54 1.43 1.31 1.02 1.45 1.29 1.08 1.02 0.88 0.52 0.35 0.26 0.19 0.17 0.13
0.62 0.84 0.89 0.91 0.87 0.83 0.78 1.21 1.29 1.56 1.65 1.24 1.53 1.09 0.81 0.78 0.56 0.38 0.36 0.26 0.17 0.13
0.75 0.69 0.76 0.87 1.00 1.14 1.15 1.06 0.95 1.12 1.21 1.08 0.85 1.09 0.94 0.78 0.49 0.22 0.22 0.25 0.29 0.23
0.57 0.75 0.56 0.48 0.61 0.84 0.78 0.83 1.04 1.10 1.12 1.19 0.88 0.61 0.76 0.86 0.49 0.24 0.13 0.12 0.14 0.20
0.27 0.32 0.36 0.40 0.33 0.35 0.50 0.59 0.59 0.71 1.00 1.22 1.31 0.92 0.62 0.56 0.53 0.38 0.14 0.08 0.09 0.11
0.05 0.06 0.05 0.08 0.12 0.15 0.23 0.34 0.44 0.49 0.49 0.60 0.83 1.08 0.90 0.67 0.51 0.42 0.21 0.10 0.08 0.08
0.02 0.01 0.01 0.01 0.01 0.01 0.02 0.04 0.09 0.18 0.27 0.30 0.34 0.47 0.60 0.67 0.55 0.42 0.24 0.13 0.09 0.09
0.01 0.00 0.00 0.00 0.01 0.02 0.03 0.02 0.04 0.07 0.10 0.13 0.14 0.18 0.21 0.25 0.24 0.27 0.20 0.12 0.11 0.12
0.01 0.01 0.00 0.01 0.02 0.02 0.05 0.06 0.06 0.14 0.17 0.23 0.15 0.18 0.15 0.15 0.12 0.13 0.15 0.18 0.14 0.17
0.00 0.02 0.01 0.02 0.03 0.04 0.09 0.09 0.12 0.20 0.28 0.26 0.32 0.29 0.28 0.22 0.09 0.09 0.11 0.11 0.10 0.14